This is the latest recevied weather packets stored in our database for station/object N4JTC. If no packets are shown the sender has not sent any weather packets the latest 1 day(s).
| Time | Temp. | Humidity | Pressure | Rain* | Wind** | Luminosity | Snow |
|---|---|---|---|---|---|---|---|
| 1777969803 | 12.78° C | 92% | 1014.8 hPa | 0 mm | 0 m/s | 0 W/m² | - |
| 1777969503 | 13.33° C | 91% | 1014.8 hPa | 0 mm | 0 m/s | 0 W/m² | - |
| 1777969203 | 12.78° C | 91% | 1014.7 hPa | 0 mm | 0 m/s | 0 W/m² | - |
| 1777968903 | 13.33° C | 91% | 1014.7 hPa | 0 mm | 0 m/s | 0 W/m² | - |
| 1777968302 | 12.78° C | 91% | 1015 hPa | 0 mm | 0 m/s | 0 W/m² | - |
| 1777968003 | 12.78° C | 91% | 1014.8 hPa | 0 mm | 0 m/s | 0 W/m² | - |
| 1777967703 | 12.78° C | 91% | 1015 hPa | 0 mm | 0 m/s | 0 W/m² | - |
| 1777967102 | 13.33° C | 91% | 1014.9 hPa | 0 mm | 0 m/s | 0 W/m² | - |
| 1777966803 | 13.33° C | 91% | 1015 hPa | 0 mm | 0 m/s | 0 W/m² | - |
| 1777966503 | 13.33° C | 91% | 1014.9 hPa | 0 mm | 0 m/s | 0 W/m² | - |
| 1777966203 | 13.33° C | 91% | 1015.3 hPa | 0 mm | 0 m/s | 0 W/m² | - |
| 1777965902 | 13.33° C | 91% | 1015 hPa | 0 mm | 0 m/s | 0 W/m² | - |
| 1777965303 | 13.33° C | 91% | 1015.3 hPa | 0 mm | 0 m/s | 0 W/m² | - |
| 1777965003 | 13.33° C | 91% | 1015.2 hPa | 0 mm | 0 m/s | 0 W/m² | - |
| 1777964702 | 13.33° C | 91% | 1015.2 hPa | 0 mm | 0 m/s | 0 W/m² | - |
| 1777964403 | 13.33° C | 91% | 1015.1 hPa | 0 mm | 0 m/s | 0 W/m² | - |
| 1777964103 | 13.33° C | 90% | 1015.1 hPa | 0 mm | 0 m/s | 0 W/m² | - |
| 1777963503 | 13.89° C | 91% | 1015.4 hPa | 0 mm | 0 m/s | 0 W/m² | - |
| 1777963203 | 13.89° C | 91% | 1015.7 hPa | 0 mm | 0 m/s | 0 W/m² | - |
| 1777962903 | 13.89° C | 90% | 1015.6 hPa | 0 mm | 0 m/s | 0 W/m² | - |
| 1777962603 | 13.89° C | 91% | 1015.3 hPa | 0 mm | 0 m/s | 0 W/m² | - |
| 1777962303 | 13.89° C | 90% | 1015.8 hPa | 0 mm | 0 m/s | 0 W/m² | - |
| 1777961703 | 14.44° C | 91% | 1015.7 hPa | 0 mm | 0 m/s | 0 W/m² | - |
| 1777961403 | 13.89° C | 90% | 1015.7 hPa | 0 mm | 0 m/s | 0 W/m² | - |
| 1777961103 | 14.44° C | 90% | 1015.5 hPa | 0 mm | 0 m/s | 0 W/m² | - |
* Rain latest hour (hover to see other rain measurements)
** Current wind speed in m/s (hover to see current wind gust speed)